Evansville, IN

5:09 AM CDT on May 27, 2017 (GMT -0500)
Evansville Regional

Weather History for KEVV - February, 2014

Change the Weather History Date:

Monday, February 10, 2014

  Actual Average Record
Temperature  
Mean Temperature 14 °F 35 °F  
Max Temperature 21 °F 44 °F 70 °F (1898)
Min Temperature 7 °F 26 °F -7 °F (1899)
Degree Days  
Heating Degree Days 51 30  
Month to date heating degree days 397 308  
Since 1 July heating degree days 3373 3087  
Cooling Degree Days 0 0  
Month to date cooling degree days 0 0  
Year to date cooling degree days 0 0  
Moisture  
Dew Point 4 °F    
Average Humidity 65    
Maximum Humidity 77    
Minimum Humidity 53    
Precipitation  
Precipitation 0.00 in 0.11 in 1.79 in (1985)
Month to date precipitation 1.70 1.17  
Year to date precipitation 3.39 4.27  
Snow  
Snow 0.00 in 0.20 in 3.00 in (1964)
Month to date snowfall 1.9 1.5  
Since 1 July snowfall 9.7 8.4  
Snow Depth 1.00 in    
Sea Level Pressure  
Sea Level Pressure 30.42 in    
Wind  
Wind Speed 9 mph (North)    
Max Wind Speed 14 mph    
Max Gust Speed 19 mph    
Visibility 10 miles    
Events      
T = Trace of Precipitation, MM = Missing Value Source: NWS Daily Summary

Daily Weather History Graph

Daily Weather History Graph

Search for Another Location

Airport or City:

Trip Planner

Search our weather history database for the weather conditions in past years. The results will help you decide how hot, cold, wet, or windy it might be!

Date:

Astronomy

Feb. 10, 2014 Rise Set
Actual Time 6:45 AM CST 5:23 PM CST
Civil Twilight 6:18 AM CST 5:50 PM CST
Nautical Twilight 5:47 AM CST 6:21 PM CST
Astronomical Twilight 5:16 AM CST 6:52 PM CST
Moon 1:53 PM CST (2/10) 3:37 AM CST (2/10)
Length of Visible Light 11h 32m
Length of Day
10h 37m
Waxing Gibbous, 85% of the Moon is Illuminated
Feb 10
Waxing Gibbous
Feb 14
Full
Feb 22
Last Quarter
Mar 1
New
Mar 8
First Quarter

Hourly Weather History & Observations

Time (CST) Temp. Windchill Dew Point Humidity Pressure Visibility Wind Dir Wind Speed Gust Speed Precip Events Conditions
12:17 AM 21.0 °F 11.4 °F 15.1 °F 78% 30.31 in 10.0 mi North 8.1 mph - N/A   Overcast
12:27 AM 21.0 °F 10.6 °F 12.9 °F 71% 30.31 in 10.0 mi North 9.2 mph - N/A   Overcast
12:54 AM 19.9 °F 9.3 °F 12.0 °F 71% 30.33 in 10.0 mi North 9.2 mph - N/A   Overcast
1:54 AM 19.9 °F 8.6 °F 10.0 °F 65% 30.34 in 10.0 mi North 10.4 mph - N/A   Overcast
2:54 AM 19.9 °F 11.1 °F 10.0 °F 65% 30.35 in 10.0 mi North 6.9 mph - N/A   Overcast
3:54 AM 19.0 °F 10.0 °F 10.0 °F 68% 30.34 in 10.0 mi North 6.9 mph - N/A   Overcast
4:54 AM 19.0 °F 6.8 °F 10.0 °F 68% 30.37 in 10.0 mi North 11.5 mph - N/A   Overcast
5:54 AM 17.1 °F 3.6 °F 9.0 °F 71% 30.39 in 10.0 mi North 12.7 mph - N/A   Scattered Clouds
6:54 AM 15.1 °F 5.2 °F 8.1 °F 74% 30.41 in 9.0 mi NNW 6.9 mph - N/A   Overcast
7:54 AM 14.0 °F 3.9 °F 7.0 °F 74% 30.43 in 7.0 mi NNW 6.9 mph - N/A   Mostly Cloudy
8:54 AM 15.1 °F 4.2 °F 6.1 °F 68% 30.44 in 6.0 mi NNW 8.1 mph - N/A   Haze
9:54 AM 14.0 °F 2.0 °F 5.0 °F 67% 30.47 in 9.0 mi NW 9.2 mph - N/A   Haze
10:54 AM 15.1 °F 3.3 °F 3.0 °F 59% 30.47 in 6.0 mi NNW 9.2 mph - N/A   Haze
11:54 AM 14.0 °F 0.5 °F 3.0 °F 62% 30.45 in 10.0 mi NW 11.5 mph - N/A   Haze
12:54 PM 16.0 °F 2.9 °F 3.9 °F 59% 30.43 in 10.0 mi NNW 11.5 mph 18.4 mph N/A   Clear
1:54 PM 17.1 °F 5.8 °F 3.0 °F 54% 30.42 in 10.0 mi NNW 9.2 mph - N/A   Clear
2:54 PM 17.1 °F 7.6 °F 3.9 °F 56% 30.42 in 10.0 mi Variable 6.9 mph 16.1 mph N/A   Clear
3:54 PM 17.1 °F 5.8 °F 3.0 °F 54% 30.43 in 10.0 mi North 9.2 mph - N/A   Clear
4:54 PM 15.1 °F 3.3 °F 1.9 °F 56% 30.45 in 10.0 mi North 9.2 mph - N/A   Clear
5:54 PM 14.0 °F 2.9 °F 1.0 °F 56% 30.46 in 10.0 mi North 8.1 mph - N/A   Clear
6:54 PM 12.0 °F 2.7 °F 1.0 °F 61% 30.47 in 10.0 mi North 5.8 mph - N/A   Clear
7:54 PM 10.9 °F 0.2 °F -0.9 °F 59% 30.47 in 10.0 mi North 6.9 mph - N/A   Clear
8:54 PM 10.0 °F -0.9 °F -2.0 °F 58% 30.48 in 10.0 mi North 6.9 mph - N/A   Clear
9:54 PM 9.0 °F -5.1 °F -2.9 °F 59% 30.48 in 10.0 mi North 10.4 mph - N/A   Clear
10:54 PM 8.1 °F -2.0 °F -4.0 °F 58% 30.49 in 10.0 mi North 5.8 mph - N/A   Clear
11:54 PM 7.0 °F -6.6 °F -4.0 °F 61% 30.49 in 10.0 mi North 9.2 mph - N/A   Clear